Date,TemperatureHighF,TemperatureAvgF,TemperatureLowF,DewpointHighF,DewpointAvgF,DewpointLowF,HumidityHigh,HumidityAvg,HumidityLow,PressureMaxIn,PressureMinIn,WindSpeedMaxMPH,WindSpeedAvgMPH,GustSpeedMaxMPH,PrecipitationSumIn
2013-1-1,52,30,17,17,10,3,86,48,13,0.00,40.00,8,2,27,0.10
2013-1-2,55,36,25,25,16,3,82,48,26,0.00,40.00,2,0,15,0.06
2013-1-3,55,33,23,20,13,8,64,45,18,0.00,40.00,3,0,9,0.01
2013-1-4,57,35,24,30,20,12,96,57,20,0.00,40.00,3,0,12,0.00
2013-1-5,55,37,27,29,23,17,92,59,32,0.00,40.00,3,0,14,0.00
2013-1-6,34,30,25,32,28,22,100,91,70,0.00,40.00,4,0,10,0.04
2013-1-7,56,37,25,30,25,18,100,65,34,0.00,40.00,3,0,12,0.06
2013-1-8,66,41,32,34,25,16,79,55,27,0.00,40.00,2,0,9,0.03
2013-1-9,57,39,26,33,23,10,100,56,27,0.00,40.00,5,2,23,0.00
2013-1-10,32,24,17,31,20,12,100,88,53,0.00,40.00,3,0,11,0.00
2013-1-11,30,23,13,22,16,9,100,78,41,0.00,40.00,1,0,8,0.03
2013-1-12,39,20,5,16,6,-4,86,58,27,0.00,40.00,3,0,8,0.08
2013-1-13,39,20,5,8,-2,-10,67,40,21,0.00,40.00,6,1,22,0.03
2013-1-14,48,28,10,19,2,-9,53,35,17,0.00,40.00,7,2,22,0.06
2013-1-15,63,42,29,21,15,11,60,36,13,0.00,40.00,9,2,25,0.18
2013-1-16,66,46,33,14,3,-14,30,18,5,0.00,40.00,8,2,24,0.02
2013-1-17,70,40,30,18,6,-4,42,24,7,0.00,40.00,5,1,12,0.00
2013-1-18,64,38,28,19,8,-6,43,29,10,0.00,40.00,3,0,11,0.00
2013-1-19,65,40,27,19,9,-1,49,29,11,0.00,40.00,2,0,8,0.00
2013-1-20,67,38,28,17,6,-4,41,29,6,0.00,40.00,5,1,13,0.00
2013-1-21,70,42,30,20,12,3,49,31,9,0.00,40.00,5,0,11,0.00
2013-1-22,66,42,31,22,15,7,48,35,12,0.00,40.00,1,0,9,0.00
2013-1-23,59,44,34,33,16,6,92,36,12,0.00,40.00,3,0,14,0.00
2013-1-24,45,40,35,44,40,35,100,99,91,0.00,40.00,0,0,4,0.25
2013-1-25,52,41,36,50,40,36,100,96,65,0.00,40.00,0,0,6,0.23
2013-1-26,52,39,33,47,34,25,100,85,41,0.00,40.00,4,1,13,0.05
2013-1-27,42,31,23,33,24,14,100,78,38,0.00,40.00,3,1,11,0.08
2013-1-28,46,27,16,28,16,9,98,67,26,0.00,40.00,3,0,11,0.01
2013-1-29,59,38,28,28,23,20,90,56,29,0.00,40.00,5,1,24,0.00
2013-1-30,64,42,32,30,24,8,74,53,13,0.00,40.00,4,0,15,0.00
2013-1-31,63,46,30,28,21,16,61,41,18,0.00,40.00,2,0,9,0.00